Wind_Speed
27 25 22 19 17 16 15 13 13 15 17 19 19 19 18 16 14 14 14 15 18 21 23 21 16 12 10 10 12 14 16 15 14 13 12 10 7 7 8 10 12 14 16 18 19 19 19 17 18 18 17 15 15 15 16 17 17 16 14 11 8 6 6 7 9 11 13 15 16
27 25 22 19 17 16 15 13 12 12 14 16 16 16 15 14 14 13 14 14 17 19 20 17 13 10 9 9 10 12 14 14 14 13 12 9 6 4 4 7 10 12 14 16 18 18 17 16 15 16 15 14 13 13 14 15 15 14 12 10 8 7 7 6 7 8 9 11 13
23 23 21 18 16 14 12 11 11 12 13 14 14 13 13 13 14 15 15 16 17 16 14 12 11 10 9 8 9 12 13 14 14 14 13 12 9 6 6 7 9 11 12 14 16 16 15 13 12 13 14 14 13 12 12 13 14 13 12 11 10 10 9 8 8 8 8 9 9
20 21 20 18 17 15 13 12 12 13 13 13 12 12 12 13 15 16 17 17 16 15 13 12 11 9 8 8 9 12 13 13 14 14 14 13 13 12 11 9 9 9 10 11 12 12 11 11 11 12 12 13 12 12 12 13 13 13 12 12 12 12 11 10 10 9 9 9 10
23 23 21 19 18 17 15 14 14 13 13 13 12 12 14 16 17 17 17 17 17 16 14 12 10 9 8 9 10 11 11 12 12 13 14 15 16 16 16 14 11 8 8 9 9 9 10 11 12 13 13 13 13 12 12 13 13 12 12 13 13 13 12 11 10 10 11 12 13
28 27 25 21 19 18 17 16 15 14 13 12 12 13 15 16 17 17 17 17 16 16 14 12 10 10 10 10 11 11 11 11 12 13 14 16 16 18 20 19 16 13 11 9 8 8 9 12 14 15 16 15 16 15 14 13 12 11 11 12 12 11 10 10 10 10 12 13 15
25 24 23 21 19 18 17 16 14 13 13 13 13 14 15 16 16 17 16 15 13 12 11 10 10 10 11 11 12 12 12 11 11 12 14 17 18 19 19 20 18 17 15 12 9 8 9 13 16 17 17 17 18 18 16 14 12 11 10 10 11 10 10 9 10 11 12 15 16
21 21 20 19 18 17 16 15 13 13 12 13 13 14 15 16 16 15 14 11 9 8 8 8 9 10 10 11 11 11 11 10 9 10 13 16 17 17 17 18 18 18 16 13 10 9 11 14 16 16 16 17 18 19 18 15 13 12 11 11 11 10 10 10 10 11 13 15 18
20 20 19 18 17 16 15 14 13 12 12 12 13 14 15 15 14 12 10 8 7 8 9 10 10 10 10 10 10 10 10 9 8 8 10 13 14 15 16 17 17 16 14 11 9 10 13 15 15 15 16 17 17 17 16 16 16 15 14 12 11 10 11 11 11 12 14 16 19
20 20 19 19 19 17 15 14 12 11 10 10 11 13 15 15 13 11 9 8 9 11 12 12 12 12 12 11 11 11 11 10 8 8 9 10 12 13 15 16 16 15 12 10 9 11 14 14 14 13 14 15 15 15 15 15 16 16 15 13 11 11 11 12 12 13 15 17 20
20 19 19 20 20 19 17 16 13 12 11 11 12 15 17 18 16 13 12 11 12 13 13 12 13 13 13 13 12 13 12 11 10 9 9 10 11 13 14 14 15 14 12 11 11 13 15 15 14 13 13 14 14 14 14 14 14 14 14 13 12 12 12 12 13 15 16 18 20
19 18 17 18 19 20 20 19 18 17 16 16 16 18 21 22 21 19 17 17 16 15 14 14 15 15 15 14 14 14 13 13 12 11 10 11 12 12 13 13 13 13 13 12 13 14 16 16 16 14 13 13 13 12 12 12 13 13 13 13 13 12 13 13 15 16 18 18 19
17 16 16 16 17 18 19 20 21 21 21 20 20 21 22 25 26 25 24 23 21 19 19 19 20 20 18 17 15 15 15 15 14 13 13 14 14 14 13 12 12 12 12 12 13 14 15 16 15 14 13 11 11 10 11 11 11 11 12 12 14 15 15 15 15 16 17 17 17
16 16 15 15 15 16 17 18 20 22 23 24 24 23 24 26 27 28 27 26 25 24 24 23 23 22 21 19 18 17 17 17 17 17 17 16 16 15 14 13 12 12 12 12 12 13 13 13 12 11 9 8 8 9 9 9 10 10 10 11 13 15 16 15 15 15 15 15 15
15 15 15 15 16 16 16 17 19 21 24 25 26 26 26 27 28 29 29 28 27 26 25 24 23 22 22 21 20 20 19 19 19 19 18 17 16 15 15 14 14 13 12 12 11 11 10 8 7 6 6 6 7 8 8 9 9 10 11 12 13 14 15 15 14 14 14 14 14
12 12 13 14 15 16 16 17 19 21 23 25 27 28 28 29 30 30 30 29 27 26 25 24 23 23 22 22 21 21 20 20 21 20 18 17 16 15 15 15 14 13 12 12 12 11 9 7 5 4 5 6 8 9 9 10 11 12 13 13 13 14 14 14 14 14 14 13 13
7 8 9 11 13 14 16 17 19 20 22 24 26 28 30 30 30 30 30 29 28 27 26 25 24 23 22 22 22 21 22 22 21 20 18 16 15 14 14 13 13 12 12 12 12 12 10 7 5 5 5 7 9 10 11 12 13 14 14 14 13 13 13 13 14 14 14 14 13
2 4 5 7 9 11 13 15 17 19 21 22 25 28 30 31 31 31 30 29 29 28 27 26 25 24 23 22 22 22 22 22 21 19 17 15 14 13 12 11 11 11 11 12 12 11 10 8 7 7 8 9 10 12 13 14 14 14 14 13 12 12 13 14 15 15 15 15 15
2 3 4 5 7 8 10 12 14 16 18 20 22 25 28 30 31 31 30 29 29 29 28 26 25 24 23 22 22 22 22 22 20 18 16 15 13 12 11 10 10 11 11 11 11 11 11 10 9 9 10 11 12 13 13 14 14 14 13 12 12 12 13 14 14 15 14 14 14
2 3 4 5 7 8 9 10 12 13 15 16 19 22 25 27 29 30 30 30 29 29 27 26 24 24 23 23 22 23 22 21 20 18 16 15 13 12 11 11 11 12 13 13 12 12 12 11 11 12 12 13 13 13 13 13 13 13 13 12 12 13 13 13 13 13 13 13 13
1 2 4 5 6 8 9 10 11 12 13 14 15 17 20 23 26 28 29 29 29 28 26 25 24 24 24 23 23 23 23 22 20 18 16 14 13 12 12 12 13 15 15 15 14 14 14 13 14 13 13 13 13 13 12 12 12 12 12 12 13 13 13 13 12 12 11 11 11
1 2 3 4 5 7 8 9 11 12 12 12 13 15 17 20 23 25 27 28 27 26 25 24 24 24 24 24 24 23 23 21 19 17 15 13 11 11 12 14 16 17 17 17 16 15 15 15 14 13 13 13 12 12 12 11 11 12 12 12 12 13 13 12 11 9 8 7 7
2 2 2 3 4 5 6 8 9 10 11 12 12 14 16 19 21 23 25 25 25 24 23 23 23 24 24 24 23 23 22 20 18 15 13 11 11 13 15 16 17 17 17 16 16 16 15 14 13 12 12 11 11 12 12 11 11 11 11 11 11 11 11 10 7 5 4 5 5
2 2 2 3 3 4 5 6 7 9 10 11 12 14 16 18 20 21 22 22 23 23 23 23 23 23 23 23 22 21 20 19 17 15 13 12 14 15 17 17 17 16 15 15 15 14 14 13 12 11 11 11 11 11 11 11 10 10 9 9 8 8 8 7 5 4 4 5 6
3 3 3 3 3 3 4 5 6 7 9 10 12 14 16 18 19 19 20 20 21 21 22 22 22 22 21 20 19 18 17 16 16 15 15 15 16 17 17 17 16 15 14 14 13 13 13 12 12 12 12 12 11 11 10 9 8 8 7 6 6 6 6 6 5 5 5 6 6
3 3 3 4 4 4 4 4 5 6 7 9 11 13 15 17 18 18 18 19 19 20 20 20 20 20 19 17 16 15 15 15 15 16 17 18 19 19 18 17 15 14 14 14 13 13 12 12 11 12 12 11 11 10 9 8 7 6 6 6 6 6 5 5 5 5 5 5 6
4 4 4 4 4 4 5 4 5 5 6 7 9 11 13 15 16 17 18 18 19 19 19 19 18 17 16 15 15 15 15 16 16 17 19 20 21 20 18 17 15 15 14 14 13 12 11 11 10 10 10 10 9 9 7 7 6 6 5 5 5 5 4 4 4 4 4 5 5
4 4 4 4 5 5 5 5 5 5 6 7 8 9 11 13 15 16 17 18 18 18 18 17 16 15 14 14 15 16 17 18 18 19 20 21 21 20 18 17 16 15 14 13 12 11 10 9 9 9 8 8 8 8 7 6 6 6 6 5 5 4 4 3 4 4 4 5 5
5 5 5 5 5 5 5 6 6 6 6 7 8 9 11 12 14 15 16 17 18 18 17 16 15 15 15 16 16 17 18 19 20 20 20 20 19 18 17 16 15 14 12 11 10 9 9 8 8 8 7 8 7 7 7 7 6 6 6 6 5 4 4 4 4 4 5 5 6
6 6 6 6 6 6 7 7 7 7 7 8 8 10 11 12 14 15 16 17 18 18 17 17 16 16 17 17 18 19 19 20 20 20 19 19 18 17 16 15 13 12 11 10 10 9 9 9 9 9 8 8 7 7 7 8 7 7 7 6 6 5 4 4 4 4 5 6 6
7 7 7 7 7 7 8 8 8 8 8 9 10 11 13 14 16 17 18 18 18 18 18 18 18 18 18 19 19 20 20 20 19 19 18 17 16 15 14 13 12 11 11 10 10 10 10 10 10 9 9 8 8 9 9 9 9 8 8 7 7 6 5 4 4 5 5 6 6
8 8 8 8 8 8 8 8 9 9 9 10 11 13 15 16 17 18 19 19 19 19 18 19 19 19 20 20 20 20 20 20 19 18 17 16 15 14 13 12 11 11 11 11 11 11 11 11 10 10 10 9 9 10 10 10 10 9 9 8 8 7 6 5 5 5 5 6 7
10 10 10 10 10 10 9 9 10 10 11 11 13 15 16 18 18 19 19 19 19 19 19 20 20 21 21 22 22 21 20 19 18 17 16 15 14 13 12 12 11 11 11 12 12 12 12 11 11 11 10 9 9 10 10 10 10 10 10 9 8 7 7 6 5 5 5 6 7
11 11 11 11 11 11 11 11 10 11 12 13 14 16 18 19 19 20 20 19 18 18 19 20 21 21 22 22 22 21 20 19 18 17 16 14 13 13 13 13 12 12 12 12 12 12 12 12 11 11 10 10 10 10 10 11 11 11 10 9 9 8 7 6 5 5 6 6 7
12 12 12 12 13 12 12 12 12 12 13 14 16 17 18 19 20 20 20 19 18 18 18 19 20 20 20 21 20 20 19 18 17 16 15 14 14 14 14 14 13 13 13 13 13 13 12 12 12 11 11 10 11 11 11 11 11 11 10 9 9 8 7 6 6 6 6 7 8
12 13 13 14 14 14 14 13 13 13 14 16 17 18 19 19 20 20 19 19 18 18 19 19 20 20 20 20 19 18 18 18 17 16 16 15 15 15 15 14 13 13 13 14 14 13 13 13 12 12 11 11 12 12 12 12 12 11 10 9 9 8 7 6 6 6 7 7 8
12 13 14 15 15 15 15 15 14 14 15 17 18 19 20 20 20 20 20 19 19 19 19 19 20 20 20 20 19 18 17 17 16 16 15 15 15 15 14 14 14 14 14 14 14 14 13 13 12 12 12 13 13 13 13 12 11 11 10 9 9 8 7 7 6 7 7 8 9
12 13 14 16 16 16 16 16 16 16 16 17 18 19 20 20 20 20 20 20 20 20 20 20 20 20 20 19 19 18 17 16 15 15 15 15 15 14 14 14 14 14 15 15 15 14 14 14 13 12 13 14 14 13 13 12 11 10 9 9 9 8 8 7 7 7 7 8 9
12 13 15 16 17 17 17 17 17 17 17 17 18 19 20 21 21 21 21 21 21 21 21 21 21 20 20 19 18 17 16 16 15 15 14 14 14 13 13 14 14 15 15 16 15 15 15 14 13 13 13 14 14 13 13 12 11 10 10 9 9 9 8 8 7 8 8 10 11
11 13 15 16 17 18 18 18 17 17 17 17 18 19 20 21 21 22 21 21 21 21 21 21 20 20 20 19 18 18 17 16 15 14 14 13 13 12 13 14 14 15 15 16 15 15 15 15 14 13 13 14 14 13 13 12 11 11 10 10 10 10 9 9 8 9 9 11 11
10 12 14 16 17 18 19 18 18 17 17 17 18 19 19 20 21 22 22 22 23 22 22 21 20 20 20 20 19 18 17 16 15 14 13 12 11 11 12 13 14 15 16 16 16 15 15 15 14 13 13 14 14 14 13 13 12 12 12 11 11 11 10 10 9 10 11 12 12
Wind_Direction
217 218 219 221 220 216 212 214 217 217 217 217 216 215 213 213 216 221 226 233 238 242 245 250 252 248 239 237 247 256 259 257 256 254 252 251 247 240 239 240 237 233 229 227 229 229 225 217 217 218 216 211 208 209 210 211 210 210 211 217 231 253 275 286 279 265 252 245 241
219 220 221 223 223 217 211 210 213 215 217 218 218 216 211 206 206 211 219 228 235 240 244 246 243 236 232 236 249 258 261 260 259 258 260 263 264 263 251 240 233 228 225 224 224 222 216 209 210 214 219 221 224 222 217 214 213 215 221 233 250 266 279 286 284 274 262 252 246
216 218 222 227 229 228 223 218 217 218 221 224 226 225 220 213 208 210 216 222 225 226 227 228 228 226 226 231 245 254 258 261 261 263 265 264 271 276 264 242 224 215 212 213 213 212 207 203 207 215 223 229 232 229 220 214 214 219 230 245 258 266 272 275 277 276 273 270 263
215 217 222 229 235 237 234 226 222 222 226 230 233 233 230 225 220 217 215 210 203 200 202 213 219 217 210 213 232 247 255 259 260 261 263 265 267 263 257 250 232 213 202 202 204 206 207 209 215 222 227 230 232 230 222 216 215 222 234 247 256 262 265 269 273 276 280 283 282
212 213 218 225 231 234 230 223 219 221 225 229 229 229 229 227 224 216 204 193 185 180 182 197 213 215 208 209 226 242 253 256 254 251 251 254 256 254 251 251 252 243 226 216 214 215 218 220 224 229 232 232 233 232 229 223 221 227 238 248 254 257 259 262 269 278 286 291 293
208 208 211 219 226 227 221 215 214 219 224 226 224 221 219 218 214 206 196 187 179 174 176 191 216 230 233 234 242 249 255 256 250 242 238 243 250 251 250 252 258 262 259 248 239 231 227 228 231 233 234 234 236 236 235 230 230 237 248 257 261 262 262 265 273 284 293 300 302
212 213 215 220 224 222 216 211 212 217 223 225 221 214 208 205 202 197 192 187 181 180 189 209 232 247 253 257 259 262 263 263 255 243 236 238 242 245 247 250 261 266 264 260 254 240 229 229 230 229 227 226 230 234 236 237 241 251 263 271 274 276 278 281 287 294 300 305 307
219 222 225 225 226 223 218 214 213 215 220 222 218 209 200 195 193 191 189 189 196 211 230 246 257 266 272 275 274 272 270 267 260 248 239 236 235 237 241 247 256 261 261 259 254 239 227 225 225 222 218 219 223 228 233 240 250 262 271 276 279 282 285 287 291 295 300 304 306
224 226 227 227 228 226 222 217 215 216 219 221 218 211 202 195 190 189 192 206 230 252 266 275 280 283 286 287 283 277 271 265 257 247 238 233 232 233 239 245 250 253 252 250 241 228 223 222 219 216 215 219 224 229 235 242 250 258 267 275 280 282 282 283 285 290 296 301 302
225 225 224 223 220 220 221 222 219 219 222 219 214 211 208 204 200 200 208 226 246 263 274 282 285 287 288 287 282 274 264 255 246 237 229 226 227 231 236 241 244 244 240 232 219 214 215 215 212 211 214 221 229 237 244 247 248 253 261 270 277 279 278 277 275 278 282 288 291
229 227 224 220 217 216 221 228 226 226 225 217 208 205 206 207 207 209 214 225 240 252 262 268 271 273 274 274 270 263 254 243 235 225 218 214 216 221 227 233 237 237 233 222 208 204 206 209 208 208 213 222 232 240 247 250 252 255 261 268 275 278 277 271 264 260 261 266 271
236 234 229 224 222 221 223 226 227 223 217 214 209 205 204 204 204 205 209 214 221 227 234 238 243 248 253 257 257 251 242 232 225 216 208 203 203 206 214 222 229 232 230 221 208 201 200 202 201 201 205 216 227 236 243 249 255 260 264 267 270 273 271 263 254 248 247 249 253
241 241 237 232 230 228 226 224 222 215 210 210 211 209 206 204 203 203 205 208 210 211 214 218 223 229 235 242 246 242 232 222 215 209 202 196 194 196 200 208 216 220 219 214 204 198 195 192 188 186 192 203 217 228 238 246 252 258 262 263 263 262 259 251 242 237 237 238 240
236 240 241 239 237 234 230 225 217 211 207 208 210 210 208 206 206 206 208 211 213 214 214 215 216 220 225 232 237 235 226 216 209 203 199 194 191 189 190 193 198 203 205 203 200 196 191 185 181 181 187 199 211 222 230 238 243 247 249 249 249 248 244 234 226 223 224 227 231
225 231 236 238 238 235 231 224 218 212 208 207 207 207 207 206 207 209 212 216 219 221 220 217 216 217 220 225 229 226 218 209 204 202 199 195 190 186 183 182 185 191 198 205 209 210 206 197 193 195 199 201 206 212 217 221 224 227 228 228 227 226 222 214 214 216 218 221 223
219 223 228 232 234 233 230 224 220 216 212 209 207 206 206 206 207 210 214 218 223 225 224 221 219 218 218 219 219 214 208 203 202 202 200 196 192 187 183 181 183 190 201 214 225 232 234 233 224 212 202 194 194 198 201 204 206 209 211 211 210 208 207 208 212 216 219 220 217
222 223 226 228 230 230 229 226 223 220 217 214 210 207 207 208 209 211 214 219 223 226 226 224 223 221 219 216 212 206 200 199 200 201 201 199 195 191 189 188 191 199 210 222 232 238 239 235 219 201 190 186 187 190 192 193 194 196 197 199 200 202 205 211 216 220 222 223 222
258 248 241 237 235 233 231 229 227 224 222 219 215 212 211 211 212 213 216 219 223 225 226 226 227 226 224 219 211 204 199 198 198 199 199 199 199 199 201 204 207 211 215 221 227 231 230 223 207 195 190 189 189 189 189 189 189 190 193 196 201 207 213 219 223 226 228 230 232
285 274 266 260 254 247 242 238 234 231 227 224 220 217 216 215 216 217 218 221 224 226 226 226 227 229 229 223 213 205 200 199 199 198 198 199 203 209 216 220 217 210 206 207 211 216 218 215 205 199 198 198 196 194 193 193 194 197 202 207 214 220 225 228 230 233 235 238 241
261 265 267 265 263 260 256 252 247 241 235 230 225 222 220 219 219 220 221 222 224 226 226 225 225 227 227 222 212 204 201 201 201 201 201 204 209 217 222 220 207 196 191 191 195 200 203 202 200 200 202 203 203 202 203 206 209 213 216 220 225 230 233 236 238 239 241 243 245
254 262 263 262 262 262 260 258 254 249 244 237 231 226 223 221 221 220 221 223 224 225 224 223 223 224 222 217 209 204 202 203 204 206 208 211 214 215 212 202 190 183 181 183 186 189 190 191 192 195 199 204 207 210 214 218 222 224 227 230 233 236 240 244 246 248 249 248 248
315 287 277 270 265 262 260 257 255 253 250 244 237 230 224 221 218 218 219 221 221 221 220 220 221 220 217 212 207 205 204 206 208 211 214 213 207 198 189 183 178 175 174 176 177 179 180 183 186 191 197 203 209 215 221 225 228 232 235 239 242 245 249 253 257 259 260 261 260
346 327 307 287 273 265 260 258 256 255 253 248 240 232 225 220 216 215 214 215 215 215 215 216 216 214 212 210 209 209 210 211 212 213 211 203 190 180 175 174 172 172 173 174 174 176 178 181 186 192 199 205 211 218 224 230 235 240 245 249 251 254 257 260 261 260 261 264 263
349 338 322 298 282 270 262 256 254 254 252 247 239 232 225 219 215 212 210 209 209 209 209 210 210 209 209 210 213 214 215 215 211 205 196 187 178 173 172 173 173 172 173 174 177 181 185 189 192 195 201 207 213 220 227 234 240 245 249 253 255 257 258 257 246 233 228 235 240
339 332 318 302 288 274 262 253 248 245 243 239 234 229 225 220 216 212 209 207 206 205 206 207 208 208 209 211 213 214 213 211 205 195 184 177 173 173 174 175 175 174 174 178 183 191 197 201 201 200 202 207 213 219 225 230 235 239 241 244 246 249 248 244 231 221 219 226 231
320 311 302 293 284 272 259 248 240 234 231 228 226 224 222 221 220 218 214 211 208 207 208 209 209 210 209 208 205 203 201 198 195 188 180 174 172 173 175 177 175 175 178 184 191 197 202 205 205 204 204 206 210 213 217 220 222 224 228 232 236 239 242 240 228 220 220 225 227
297 290 286 283 274 264 254 244 233 224 219 216 215 216 216 216 218 219 217 214 212 211 211 210 209 207 204 198 193 189 187 186 185 182 178 173 171 172 174 177 177 179 184 191 196 200 202 203 205 205 205 205 207 208 209 209 210 212 217 221 225 230 235 238 232 223 221 223 221
280 276 272 267 259 252 248 241 231 222 214 210 208 208 208 209 211 213 213 212 211 209 207 205 202 197 191 185 182 180 179 178 177 176 174 173 173 174 176 179 182 186 191 196 199 201 201 201 202 204 208 211 213 212 210 207 206 209 212 214 217 221 225 228 231 231 229 225 221
270 266 260 252 246 243 240 235 230 224 218 213 208 204 202 202 203 204 205 205 205 204 201 196 191 185 179 175 175 175 174 173 173 172 172 173 174 177 181 185 188 192 196 199 201 202 203 202 199 200 207 217 221 221 217 212 209 209 211 212 214 217 220 223 230 234 235 232 228
261 257 251 245 241 238 235 232 229 226 222 216 210 205 201 199 198 197 197 198 199 199 195 189 182 177 173 171 172 172 171 171 172 173 175 177 180 184 188 191 193 195 198 201 204 208 211 210 204 199 201 211 218 221 221 217 212 211 211 212 215 218 221 224 229 235 237 236 233
254 251 247 244 241 238 234 231 229 226 222 217 211 206 201 198 196 195 194 195 195 193 190 185 180 176 174 173 172 171 171 172 174 177 181 184 188 190 192 194 195 198 201 205 211 215 217 216 209 201 199 205 211 216 219 219 215 212 211 212 215 218 222 228 233 237 239 239 236
251 248 246 244 242 238 235 231 228 224 220 215 209 204 201 198 196 194 194 193 192 189 186 183 181 179 176 174 173 173 174 175 177 181 185 190 193 194 195 197 200 205 209 214 218 220 219 214 209 204 202 204 208 213 217 220 218 214 212 212 214 217 221 227 235 240 242 240 237
249 246 244 242 240 238 235 231 227 222 217 212 208 204 201 198 196 194 193 192 191 190 188 186 184 182 178 176 176 176 177 178 181 184 187 191 194 197 199 202 207 213 218 221 223 223 218 210 205 204 204 205 209 213 218 221 221 217 214 212 213 215 219 226 235 242 244 242 237
247 245 242 240 238 236 235 231 227 221 215 210 206 204 202 199 196 193 192 192 192 191 191 189 187 184 181 179 179 179 179 181 183 186 189 192 195 199 204 208 213 219 222 223 224 223 217 208 204 204 205 205 209 214 218 222 223 220 216 213 211 213 217 226 236 244 245 241 235
248 244 241 238 236 234 233 230 226 220 214 209 207 206 205 202 199 196 194 194 193 191 190 189 187 185 182 180 181 181 181 183 186 188 191 194 198 203 208 211 215 219 222 223 224 222 218 211 207 205 205 206 209 214 219 223 225 223 217 212 210 212 216 226 238 245 244 238 229
248 244 240 236 233 232 231 228 224 220 214 210 208 207 206 205 204 201 199 196 194 191 188 185 184 181 179 179 181 184 186 187 189 191 194 198 202 207 210 213 215 218 221 222 222 222 220 216 211 206 204 207 212 217 221 225 226 223 217 210 208 210 216 225 237 242 240 231 222
249 243 238 234 232 230 229 226 223 219 215 212 210 209 208 207 205 204 202 199 195 190 187 184 183 182 181 182 184 186 189 191 193 195 198 202 207 210 213 213 214 217 220 222 222 222 221 218 213 207 205 209 215 220 223 226 225 221 214 207 206 209 215 225 234 238 233 223 214
250 243 237 233 230 229 227 225 221 218 216 214 212 211 210 209 207 207 205 202 197 192 188 186 185 185 185 186 187 189 191 194 197 200 204 208 212 214 214 213 213 216 219 222 223 223 222 220 213 209 210 214 218 222 224 226 224 218 210 205 206 210 216 224 231 231 224 215 207
252 243 237 232 229 227 226 225 223 221 219 216 214 212 212 210 210 209 208 205 201 196 192 189 189 189 188 190 191 192 193 196 201 206 210 215 217 217 216 213 212 215 219 222 223 223 222 219 210 207 212 219 222 224 225 225 221 215 209 206 208 211 216 221 225 222 215 208 202
255 245 238 233 230 228 227 226 226 224 221 218 216 215 213 212 211 210 209 206 202 199 196 193 192 191 191 193 194 195 197 200 204 208 214 219 221 221 219 215 213 214 218 221 223 223 221 218 208 204 212 222 225 225 224 222 219 215 211 209 210 212 215 218 219 215 208 203 198
258 248 240 235 232 230 229 229 228 226 224 222 220 219 218 215 213 211 208 205 202 199 198 196 194 193 194 195 197 199 200 202 206 210 215 220 223 223 221 217 214 214 217 221 222 222 220 216 207 205 212 221 223 223 222 219 216 215 213 210 211 212 214 215 215 210 205 200 196
Height
782 783 784 784 785 786 787 788 789 790 791 792 793 794 795 796 797 798 799 800 801 802 802 802 802 801 801 802 803 805 805 805 805 805 805 805 804 803 802 802 802 802 803 804 805 806 808 810 812 814 815 815 816 816 817 817 818 819 819 820 820 821 821 823 824 825 825 826 826
781 782 783 783 784 785 785 786 787 789 790 791 791 792 793 794 795 796 797 799 801 801 801 801 801 801 800 801 801 803 803 804 804 804 804 803 802 801 801 801 801 802 802 803 805 806 808 810 812 813 814 814 815 815 816 816 817 817 818 818 819 819 820 821 823 824 824 825 825
780 780 781 782 783 784 784 785 786 787 788 789 790 791 791 792 793 794 796 798 799 800 800 800 800 799 799 799 800 801 802 802 802 802 802 801 801 801 802 803 802 802 803 804 805 806 808 810 812 813 813 814 814 814 814 815 816 816 816 817 817 818 819 821 822 823 824 824 825
778 779 780 781 782 783 784 784 785 786 787 788 789 789 790 791 793 794 796 796 796 796 797 797 798 797 797 797 799 800 801 801 801 801 801 801 802 803 804 804 804 803 803 804 805 806 808 810 811 811 812 813 813 813 814 814 815 815 816 816 816 817 818 819 821 822 823 823 824
776 777 779 781 783 784 784 785 785 786 787 787 788 789 790 791 793 794 794 793 793 792 793 795 796 796 796 797 798 799 800 800 800 801 801 803 804 804 804 805 805 804 804 804 805 806 808 809 810 811 811 811 812 812 813 814 814 814 815 816 816 817 817 818 819 820 821 821 822
772 774 777 780 782 783 784 785 785 786 786 787 788 788 790 791 792 792 792 792 791 791 791 793 795 796 796 797 798 798 798 799 799 800 801 802 803 803 804 804 804 804 804 804 805 806 807 808 809 810 811 811 811 812 813 813 814 814 815 815 816 816 816 817 817 818 819 820 821
770 773 776 779 781 782 784 785 785 786 786 787 787 788 788 789 790 791 791 791 791 791 791 792 794 795 796 797 797 797 797 797 798 798 799 800 801 802 802 803 803 803 803 803 804 805 806 807 808 809 810 811 811 812 813 813 813 814 814 815 815 815 815 816 816 816 817 818 818
771 773 775 777 779 781 783 784 785 786 786 786 786 787 787 788 789 789 790 791 791 791 792 792 793 794 795 796 796 796 796 796 796 797 798 799 799 800 801 802 802 802 801 802 803 804 805 806 808 808 809 810 811 812 812 813 813 813 814 814 814 814 815 814 814 815 815 816 817
769 771 773 774 776 778 780 782 784 785 785 785 786 786 787 788 788 789 790 790 791 791 791 792 793 793 794 794 794 794 794 794 795 796 797 798 798 799 800 800 800 800 800 801 802 803 805 806 806 807 808 809 810 811 812 812 812 812 813 813 813 813 813 813 813 813 814 815 816
767 769 771 772 773 774 777 780 782 783 783 783 784 786 787 787 788 789 789 790 790 791 791 791 791 792 792 793 793 793 793 794 795 795 796 797 797 798 798 798 799 799 800 801 802 803 804 805 805 806 807 808 809 810 811 811 811 811 811 811 811 812 811 811 811 812 813 815 815
764 766 769 770 771 772 774 776 779 781 782 782 782 783 784 785 786 787 789 789 790 790 790 790 790 791 791 791 792 793 793 794 794 795 795 796 796 796 797 797 798 799 800 801 801 803 804 804 804 805 806 807 808 809 809 809 809 809 810 809 810 810 810 810 811 812 814 815 816
762 764 766 768 769 769 771 773 776 778 779 779 780 780 781 781 783 784 785 786 786 787 787 788 788 789 790 791 791 792 792 793 793 793 794 794 795 795 796 796 797 798 799 800 801 802 802 803 803 804 805 806 807 808 808 808 808 808 808 808 808 809 810 810 811 812 813 814 815
761 762 764 765 767 768 769 770 773 775 776 776 777 778 778 778 779 780 781 781 781 781 782 783 784 785 786 787 789 790 791 791 792 792 792 792 793 794 794 795 796 797 798 799 800 801 801 802 801 802 803 804 805 806 806 806 806 807 807 807 807 809 810 811 811 811 812 813 814
759 761 762 764 765 766 767 769 771 772 773 774 775 775 776 776 777 777 778 778 778 778 778 778 779 780 781 783 785 787 789 790 790 790 791 791 791 792 792 793 795 796 797 798 799 800 801 800 798 798 799 801 802 803 804 805 805 806 806 806 807 808 810 810 809 810 811 812 813
757 759 760 762 764 765 766 767 769 770 771 771 772 773 774 775 775 776 776 777 777 777 777 778 777 778 778 780 782 784 786 788 788 789 789 790 790 790 791 792 793 795 796 797 798 799 800 799 796 794 795 797 799 801 802 802 803 804 805 805 806 807 807 808 808 809 810 811 812
756 757 758 760 762 763 765 766 767 768 769 769 770 771 771 772 773 774 774 775 776 776 777 777 777 777 777 778 780 782 784 786 787 788 788 788 789 789 790 791 792 793 795 796 797 798 798 796 794 793 794 796 797 799 800 801 802 802 803 804 805 805 806 806 807 808 809 810 811
756 756 757 758 760 761 763 764 765 766 766 767 768 769 770 770 771 771 772 773 774 775 776 776 777 777 777 778 779 781 782 783 785 786 786 787 787 788 789 790 791 791 793 794 795 796 795 794 793 793 794 795 796 798 799 800 801 802 802 803 804 805 806 806 807 808 809 809 810
755 755 756 757 759 760 761 762 763 764 765 766 766 767 768 768 769 770 771 771 772 773 774 775 776 776 777 778 779 780 781 782 783 784 785 786 786 787 788 788 789 790 791 792 793 794 793 793 793 793 794 795 796 797 798 799 800 801 802 803 804 804 805 806 807 807 808 808 808
754 755 755 756 757 758 760 761 761 762 763 764 765 766 766 767 768 768 769 770 771 771 772 773 774 775 776 777 779 780 781 781 782 782 783 784 785 786 786 787 787 788 789 790 791 792 792 792 792 793 793 794 795 796 797 799 800 801 801 802 803 804 805 806 806 806 806 806 806
754 755 755 756 756 757 758 759 760 761 762 762 763 764 765 766 766 767 768 768 769 770 771 772 773 774 775 776 778 779 780 781 781 781 781 782 783 784 785 786 786 786 787 788 789 790 790 791 791 792 792 793 794 796 797 798 799 800 800 801 802 803 803 804 804 804 803 803 804
754 755 755 756 756 757 758 758 759 760 760 761 762 763 764 764 765 766 766 766 767 768 769 770 771 772 774 775 776 778 779 779 780 780 780 781 781 782 783 784 784 785 786 787 787 788 789 790 791 791 792 793 794 795 796 797 798 798 799 800 801 801 801 801 801 801 802 802 803
754 755 755 755 756 756 757 758 758 759 759 760 761 761 762 763 764 764 765 766 766 767 768 769 770 771 772 774 775 776 777 778 779 779 779 780 780 781 782 782 783 784 785 785 786 787 788 789 790 790 791 792 793 795 796 796 797 797 798 799 799 800 800 800 800 801 801 801 802
754 755 755 755 756 756 757 757 757 758 759 759 760 761 761 762 762 763 764 765 766 766 767 768 769 770 771 772 774 775 776 777 777 778 778 778 779 780 781 781 782 783 784 785 786 787 788 788 789 790 791 792 793 794 795 796 796 797 797 798 798 798 798 799 799 800 800 800 801
754 755 755 755 756 756 756 757 757 757 758 759 759 760 761 761 762 762 763 764 765 766 766 767 768 770 771 772 773 774 775 776 776 776 777 777 778 779 780 781 782 782 783 784 786 786 787 787 788 789 790 791 792 793 794 795 795 796 796 796 797 797 797 798 798 799 799 799 799
755 755 755 755 756 756 756 756 757 757 758 758 759 760 761 761 762 762 763 764 764 765 766 767 768 769 770 771 772 773 774 774 775 775 776 776 777 778 779 780 781 782 783 784 785 786 786 787 787 788 790 791 791 792 793 793 794 794 795 795 796 796 797 797 797 797 797 797 797
755 755 755 755 756 756 756 756 756 757 757 758 759 760 760 761 761 762 763 763 764 765 766 767 768 769 770 771 771 772 773 773 773 774 775 776 776 778 779 780 781 781 782 783 784 785 786 786 787 788 789 790 790 791 791 792 792 793 794 794 795 795 796 796 796 796 796 796 796
755 755 755 755 756 756 756 756 756 757 757 758 758 759 760 760 761 761 762 763 764 765 766 766 767 768 769 770 771 771 771 772 773 773 774 775 776 777 778 779 780 781 782 782 783 784 785 785 786 787 788 788 789 790 790 791 791 792 793 793 794 794 794 795 795 795 795 795 795
754 755 755 755 755 756 756 756 756 756 757 757 758 758 759 760 761 761 762 763 763 764 765 766 767 768 768 769 770 770 771 771 772 773 774 775 776 776 777 778 779 780 781 782 782 783 784 784 785 786 786 787 788 788 789 790 791 791 792 792 793 793 793 793 793 793 793 794 794
754 754 755 755 755 755 756 756 756 756 757 757 758 758 759 759 760 761 761 762 763 764 765 766 766 767 768 769 769 770 771 771 772 773 774 774 775 776 777 778 779 780 780 781 781 782 783 783 784 785 786 786 787 788 788 789 790 790 791 791 792 792 792 792 792 792 793 793 793
753 754 754 754 755 755 755 755 756 756 756 757 757 758 759 759 760 760 761 762 762 763 764 765 766 766 767 768 769 770 770 771 772 772 773 774 775 776 776 777 778 779 779 780 781 781 782 783 783 784 785 786 786 787 787 788 789 789 790 790 791 791 791 791 791 791 792 792 792
753 753 753 754 754 754 755 755 755 756 756 757 757 758 758 759 759 760 761 761 762 763 764 764 765 766 767 768 768 769 770 771 771 772 773 773 774 775 776 776 777 778 779 780 780 781 781 782 783 784 784 785 786 786 787 787 788 788 789 789 789 790 790 790 791 791 791 791 791
752 752 752 753 753 753 754 754 755 756 756 756 757 757 758 759 759 760 760 761 762 762 763 764 765 766 766 767 768 769 770 770 771 772 772 773 774 775 775 776 777 777 778 779 780 781 781 782 782 783 784 784 785 785 786 786 787 787 787 788 788 789 789 789 790 790 790 790 791
751 751 752 752 752 753 753 754 754 755 756 756 757 757 758 758 759 760 760 761 761 762 763 763 764 765 766 767 767 768 769 770 771 771 772 773 774 774 775 776 776 777 778 779 779 780 781 781 782 783 783 784 784 785 785 785 786 786 786 787 787 788 788 788 789 789 789 790 790
750 751 751 751 751 752 752 753 754 754 755 756 756 757 758 758 759 760 760 761 761 762 762 763 764 764 765 766 767 768 769 769 770 771 772 772 773 774 775 776 776 777 777 778 779 779 780 781 781 782 782 783 783 784 784 784 785 785 785 786 786 787 787 787 788 788 788 789 789
750 750 750 751 751 751 752 752 753 754 755 755 756 757 757 758 759 759 760 760 761 761 762 763 763 764 765 766 766 767 768 769 770 771 771 772 773 773 774 775 776 776 777 777 778 779 779 780 781 781 782 782 782 783 783 783 783 784 784 785 785 786 786 787 787 787 787 788 788
749 749 750 750 751 751 751 752 753 753 754 755 755 756 757 757 758 759 759 760 760 761 761 762 763 764 765 765 766 767 767 768 769 770 771 771 772 773 773 774 775 776 776 777 777 778 778 779 780 780 781 781 781 781 782 782 782 783 783 784 785 785 786 786 786 786 786 787 787
749 749 749 750 750 750 751 751 752 753 753 754 754 755 756 756 757 758 759 759 760 760 761 761 762 763 763 764 765 766 766 767 768 769 770 771 771 772 773 773 774 775 775 776 776 777 777 778 779 779 780 780 780 781 781 781 781 782 782 783 784 784 785 785 786 786 786 786 786
748 748 749 749 749 750 750 751 751 752 752 752 753 754 755 756 756 757 758 758 759 759 760 761 761 762 762 763 764 765 766 767 767 768 769 770 770 771 772 773 773 774 774 775 775 776 776 777 778 778 779 779 779 779 780 780 780 781 782 782 783 783 784 784 785 785 785 785 786
747 747 748 748 748 749 749 750 750 751 751 751 752 753 754 754 755 756 757 757 758 759 759 760 760 761 762 763 763 764 765 766 767 767 768 769 769 770 771 772 772 773 773 774 774 775 776 776 777 777 778 778 778 778 779 779 780 780 781 781 782 783 783 784 784 784 785 785 785
746 747 747 747 747 748 748 748 749 750 750 751 751 752 752 753 754 755 756 756 757 758 758 759 760 761 761 762 763 764 764 765 766 766 767 768 769 769 770 771 771 772 772 773 773 774 775 775 776 776 777 777 777 777 778 778 779 780 780 781 781 782 782 783 783 784 784 784 785
746 746 746 746 746 746 747 747 748 748 749 750 750 751 751 752 753 754 755 756 756 757 758 758 759 760 761 761 762 763 764 765 765 766 766 767 768 769 769 770 771 771 771 772 772 773 773 774 775 776 776 776 776 776 777 777 778 779 779 780 781 781 782 782 782 783 783 784 784